Flag for China Weather past 2 weeks in Shantou, Guangdong, China

Now
82 °F

Passing clouds.


Feels Like: 87 °F
Forecast: 76 / 88 °F
Wind: 6 mph from Northeast

Location: Shantou Airport

Current Time: Sep 20, 2014 at 8:45:27 PM

Latest Report: Sep 20, 2014 at 8:00 PM


Visibility: N/A

Pressure: 29.62 "Hg

Humidity: 70%

Dew point: 72 °F

Location of ShantouLocation

Historic Weather in Shantou — Graph

°F

Shantou temperature yesterday

Maximum temperature yesterday: 99 °F (at 4:00 PM)
Minimum temperature yesterday: 79 °F (at 3:00 AM)
Average temperature yesterday: 87 °F

Past Weeks' High & Low Weather Summary

 TemperatureHumidityPressure
High99 °F (Sep 19, 4:00 PM)100% (Sep 10, 2:00 AM)29.98 "Hg (Sep 10, 2:00 AM)
Low77 °F (Sep 6, 4:00 AM)47% (Sep 19, 4:00 PM)29.53 "Hg (Sep 20, 4:00 PM)
Average85 °F80%29.76 "Hg
* Reported Sep 5 7:00 PM — Sep 20 7:00 PM, Shantou, Weather by CustomWeather, © 2014

Note: Actual official high and low records may vary slightly from our data, if they occured in-between our weather recording intervals... More about our weather records

Advertising

Shantou weather history for previous 24 hours

 ConditionsComfort  
Time TempWeatherWind HumidityBarometerVisibility
7:00 PM
Sep 20
84 °FPassing clouds.6 mph66%29.59 "HgN/A
6:00 PM84 °FPartly sunny.8 mph70%29.59 "HgN/A
5:00 PM86 °FPassing clouds.10 mph62%29.56 "HgN/A
4:00 PM88 °FPassing clouds.10 mph62%29.53 "HgN/A
3:00 PM88 °FPassing clouds.10 mph62%29.56 "HgN/A
2:00 PM90 °FPartly sunny.8 mph59%29.59 "HgN/A
1:00 PM90 °FPartly sunny.8 mph63%29.62 "HgN/A
12:00 PM88 °FPassing clouds.8 mph62%29.65 "HgN/A
11:00 AM86 °FPartly sunny.6 mph66%29.65 "HgN/A
10:00 AM84 °FPartly sunny.10 mph66%29.68 "HgN/A
9:00 AM82 °FPartly sunny.8 mph70%29.68 "HgN/A
8:00 AM82 °FPartly sunny.6 mph70%29.68 "HgN/A
7:00 AM81 °FPartly sunny.10 mph74%29.65 "Hg5 mi
6:00 AM81 °FPassing clouds.8 mph79%29.62 "Hg4 mi
5:00 AM81 °FPassing clouds.3 mph79%29.62 "Hg4 mi
4:00 AM82 °FPassing clouds.6 mph79%29.59 "Hg4 mi
3:00 AM82 °FPartly cloudy.3 mph89%29.62 "Hg4 mi
2:00 AM82 °FPartly cloudy.1 mph89%29.65 "Hg4 mi
1:00 AM82 °FPartly cloudy.1 mph89%29.65 "Hg4 mi
12:00 AM82 °FPartly cloudy.No wind94%29.68 "Hg4 mi
11:00 PM
Sep 19
82 °FPassing clouds.1 mph89%29.68 "Hg5 mi
10:00 PM84 °FPassing clouds.1 mph84%29.71 "HgN/A
9:00 PM86 °FPartly cloudy.6 mph79%29.71 "HgN/A
8:00 PM86 °FPartly cloudy.8 mph79%29.68 "Hg5 mi
Weather by CustomWeather, © 2014

See weather overviewHow to use our weather pages